STARLINK-35428, 66115

Orbit data source: Space-Track

STARLINK-35428, 66115 is a payload satellite owned by SpaceX/Seattle (US) in LEO that was launched on Wed, 22 Oct 2025 UTC via an FALCON 9 launch vehicle from the Air Force Western Test Range (AFWTR). Payload-class satellites include a variety of spacecraft equipped with specific instruments for various scientific and technological missions. These include communications satellites like Starlink; space stations such as the ISS; scientific satellites like the Hubble; Earth observation satellites from companies like Planet Labs, Umbra, and HawkEye 360; GPS; miniature CubeSats for education and research; and military/defense satellites.

Loading next visibility...
Identifier
66115, 2025-237B
Orbit
LEO
Country
Flag of USUS
Related business
Manufacturer
SpaceX/Seattle
Mission
Operational Commercial Communications
Bus & Motor
STARLINK V2MO, Unknown motor
Mass
575 kg wet, ~530 kg dry
Launch date (UTC)
2025-10-22 (8 months ago)
Launch vehicle
FALCON 9
Launch site
Air Force Western Test Range (AFWTR)
Object type
Payload
Rocket body
Debris
Shape & HBR
Box + 2 Pan, 17.7 m
Radar Cross Section
36.964 m², Large (>1 m²)

Expand to show TLE details & history
Last TLE update: 12 hours ago

TLE from 12 hours ago
0 STARLINK-35428
1 66115U 25237B   26171.33392506  .00015130  00000-0  52177-3 0  9991
2 66115  53.1593 283.0108 0001366  84.1929 275.9228 15.30209799 38313
Epoch: 2026-06-20T08:00Z
TLE epoch observation values (Epoch: 2026-06-20T08:00:51.125Z)
Latitude
0.00004°
Longitude
-105.75224°
Altitude
475.989 km
Speed
7.629 km/s
True Right ascension
18h 52m 02s
True Declination
0° 00' 00"
Sunlit
Object was in full shadow at epoch
Visualization orbit readout
Latitude
Unknown
Longitude
Unknown
Altitude
Unknown
Speed
Unknown
Apparent Right ascension
Unknown
Apparent Declination
Unknown
Sunlit
N/A
Visualization observer readout
Local Sidereal Time
07:23:24
Azimuth
Unknown
Elevation
Unknown
Doppler factor
Unknown
Orbital elements
Apogee altitude
476.379 km
Perigee altitude
474.506 km
Semi-major axis
6,853.579 km
Eccentricity
0.00014
Inclination
53.1593°
RAAN
283.0108°
Arg. of periapsis
84.1929°
True anomaly
275.90723°
Mean anomaly
275.9228°
Eccentric anomaly
275.91502°
Mean motion
3.82531 °/min
Orbital period
94.11 mins
BSTAR
0.00052177
Loading maneuver chart data...
Computing Atmospheric mass density...
Loading historical data...
Loading historical data...
Loading historical data...
Loading historical data...
Loading historical data...
Loading historical data...
Loading historical data...

Documentation

Showing up to 5 results
|